Terug naar catalogus

STARLINK-31465

ActiefCommunicatieVLEO
NORAD 59012·PAYLOAD·🇺🇸 United States

Gelanceerd Feb 23, 2024 vanaf Vandenberg Space Force Base

Loading…

Volgende Passages (komende 24 uur)

TLE

VersSource: CelesTrak SupGP

Epoch: Sep 15, 2026, 03:08 UTC

1 59012C 24036Q   26258.13104167 -.00005317  00000+0 -17092-3 0  2585
2 59012  53.1564 277.9581 0001239  85.2521 173.9729 15.31715200    14

Volg STARLINK-31465 in realtime met AllMySat

Download on the App Store